Lincoln Hwy 8

*Note: All times are displayed in the local standard time of the station location.
**Rain - Equipment is designed to accurately record liquid precipitation; under conditions when precipitation is not in liquid form, the data displayed may not properly reflect rainfall values.

Date Max Temp
(°C)
Min Temp
(°C)
Avg Temp
(°C)
Rain (mm) Avg RH (%)
Sat, Feb 17, 2018 -0.9 -5.7 -2.7 0.0 71.4
Fri, Feb 16, 2018 4.7 -5.5 0.0 0.0 75.8
Thu, Feb 15, 2018 8.5 3.5 6.2 0.2 94.9
Wed, Feb 14, 2018 6.3 -4.2 3.1 7.6 72.0
Tue, Feb 13, 2018 -1.3 -15.0 -7.0 0.0 72.6
Mon, Feb 12, 2018 -1.0 -10.4 -5.1 0.2 70.6
Sun, Feb 11, 2018 0.9 -3.6 -1.7 5.0 90.3
DateTime Avg Temp (°C) Rain (mm) RH (%)
Sun, Feb 18, 2018 04:00 -2.2 0.0 86.3
Sun, Feb 18, 2018 03:00 -2.2 0.0 84.5
Sun, Feb 18, 2018 02:00 -1.7 0.0 83.5
Sun, Feb 18, 2018 01:00 -1.5 0.0 84.0
Sun, Feb 18, 2018 00:00 -1.4 0.0 82.5
Sat, Feb 17, 2018 23:00 -1.2 0.0 78.5
Sat, Feb 17, 2018 22:00 -1.3 0.0 73.0
Sat, Feb 17, 2018 21:00 -1.4 0.0 72.5
Sat, Feb 17, 2018 20:00 -1.4 0.0 70.5
Sat, Feb 17, 2018 19:00 -1.4 0.0 65.0
Sat, Feb 17, 2018 18:00 -1.3 0.0 60.5
Sat, Feb 17, 2018 17:00 -1.2 0.0 60.5
Sat, Feb 17, 2018 16:00 -1.2 0.0 63.3
Sat, Feb 17, 2018 15:00 -1.1 0.0 63.3
Sat, Feb 17, 2018 14:00 -1.0 0.0 62.8
Sat, Feb 17, 2018 13:00 -1.0 0.0 62.5
Sat, Feb 17, 2018 12:00 -1.1 0.0 62.8
Sat, Feb 17, 2018 11:00 -1.3 0.0 65.0
Sat, Feb 17, 2018 10:00 -2.4 0.0 70.3
Sat, Feb 17, 2018 09:00 -3.6 0.0 73.8
Sat, Feb 17, 2018 08:00 -5.1 0.0 77.8
Sat, Feb 17, 2018 07:00 -5.3 0.0 79.5
Sat, Feb 17, 2018 06:00 -5.5 0.0 82.0
Sat, Feb 17, 2018 05:00 -5.6 0.0 82.3
Sat, Feb 17, 2018 04:00 -5.5 0.0 81.0
Sat, Feb 17, 2018 03:00 -5.5 0.0 76.0
Sat, Feb 17, 2018 02:00 -5.4 0.0 74.3
Sat, Feb 17, 2018 01:00 -5.3 0.0 73.5
Sat, Feb 17, 2018 00:00 -5.4 0.0 74.0
Fri, Feb 16, 2018 23:00 -5.2 0.0 74.5
Fri, Feb 16, 2018 22:00 -5.1 0.0 71.8
Fri, Feb 16, 2018 21:00 -4.7 0.0 69.5
Fri, Feb 16, 2018 20:00 -3.8 0.0 61.8
Fri, Feb 16, 2018 19:00 -3.3 0.0 57.5
Fri, Feb 16, 2018 18:00 -2.7 0.0 56.0
Fri, Feb 16, 2018 17:00 -1.4 0.0 56.0
Fri, Feb 16, 2018 16:00 -0.3 0.0 56.0
Fri, Feb 16, 2018 15:00 0.5 0.0 57.0
Fri, Feb 16, 2018 14:00 1.1 0.0 57.3
Fri, Feb 16, 2018 13:00 1.6 0.0 62.0
Fri, Feb 16, 2018 12:00 1.7 0.0 71.0
Fri, Feb 16, 2018 11:00 1.6 0.0 82.5
Fri, Feb 16, 2018 10:00 1.6 0.0 83.0
Fri, Feb 16, 2018 09:00 1.3 0.0 83.5
Fri, Feb 16, 2018 08:00 1.1 0.0 85.3
Fri, Feb 16, 2018 07:00 1.8 0.0 86.5
Fri, Feb 16, 2018 06:00 2.6 0.0 89.5
Fri, Feb 16, 2018 05:00 2.6 0.0 95.5


asterix Register now to access more data! asterix